date,harmonis dynamique,bench,,
02/01/2009,100,100,,
05/01/2009,102.4174917,102.301947,,
06/01/2009,104.3151815,104.6136191,,
07/01/2009,103.8531353,101.9129403,,
08/01/2009,102.5742574,101.7087118,,
09/01/2009,102.3762376,100.1001692,,
12/01/2009,101.3448845,99.45539066,,
13/01/2009,99.7359736,98.72697567,,
14/01/2009,97.830033,95.62367495,,
15/01/2009,95.50330033,94.985704,,
16/01/2009,95.56105611,95.55559878,,
19/01/2009,95.14851485,94.93999572,,
20/01/2009,93.96039604,92.80629413,,
21/01/2009,93.04455446,94.11724661,,
22/01/2009,92.93729373,92.82088188,,
23/01/2009,92.83828383,93.35965612,93,35965612
26/01/2009,93.08580858,94.39538638,94,39538638
27/01/2009,94.09240924,94.4897205,94,4897205
28/01/2009,95.99009901,96.91323206,96,91323206
29/01/2009,96.61716172,95.50891798,95,50891798
30/01/2009,95.34653465,95.58671931,95,58671931
02/02/2009,93.97689769,94.20088305,94,20088305
03/02/2009,93.61386139,95.36498551,95,36498551
04/02/2009,95.24752475,96.51741777,96,51741777
05/02/2009,95.80858086,96.97061055,96,97061055
06/02/2009,97.32673267,99.21226149,99,21226149
09/02/2009,97.6320132,98.89619357,98,89619357
10/02/2009,96.30363036,95.63631766,95,63631766
11/02/2009,95.04950495,95.76371735,95,76371735
12/02/2009,94.54620462,95.42819909,95,42819909
13/02/2009,94.15841584,95.15005932,95,15005932
16/02/2009,93.90264026,94.8281563,94,8281563
17/02/2009,92.31848185,92.18193842,92,18193842
18/02/2009,91.16336634,91.82113473,91,82113473
19/02/2009,90.15676568,91.23567969,91,23567969
20/02/2009,88.82013201,89.12337347,89,12337347
23/02/2009,86.46039604,86.75626787,86,75626787
24/02/2009,85.2640264,87.35728318,87,35728318
25/02/2009,85.71782178,87.08206096,87,8206096
26/02/2009,85.44554455,87.53136366,87,53136366
27/02/2009,85.01650165,86.49855095,86,49855095
02/03/2009,82.83828383,82.53165542,82,53165542
03/03/2009,80.12376238,81.46480462,81,46480462
04/03/2009,81.07260726,84.0001556,84,1556
05/03/2009,80.47029703,81.20514267,81,20514267
06/03/2009,78.34983498,80.13829187,80,13829187
09/03/2009,77.72277228,79.54408418,79,54408418
10/03/2009,79.05940594,83.14239589,83,14239589
11/03/2009,81.32013201,83.46138136,83,46138136
12/03/2009,82.2689769,84.60214343,84,60214343
13/03/2009,83.35808581,85.29068524,85,29068524
16/03/2009,83.92739274,86.01812771,86,1812771
17/03/2009,84.58745875,87.09762122,87,9762122
18/03/2009,85.41254125,87.36895338,87,36895338
19/03/2009,84.58745875,85.86252504,85,86252504
20/03/2009,84.71947195,85.33931107,85,33931107
23/03/2009,86.32013201,88.95999066,88,95999066
24/03/2009,88.27557756,88.96388073,88,96388073
25/03/2009,88.34158416,89.52891292,89,52891292
26/03/2009,89.01815182,90.11923054,90,11923054
27/03/2009,89.9339934,89.91889211,89,91889211
30/03/2009,87.49174917,87.09373116,87,9373116
31/03/2009,86.10561056,88.25297104,88,25297104
01/04/2009,87.92079208,89.91889211,89,91889211
02/04/2009,90.4290429,93.28574485,93,28574485
03/04/2009,92.58250825,92.92591368,92,92591368
06/04/2009,92.55775578,91.98451753,91,98451753
07/04/2009,91.94719472,91.67525723,91,67525723
08/04/2009,92.0049505,92.00980297,92,980297
09/04/2009,94.13366337,94.5364013,94,5364013
13/04/2009,94.13366337,94.77758544,94,77758544
14/04/2009,95.64356436,94.89915002,94,89915002
15/04/2009,96.19636964,95.12574641,95,12574641
16/04/2009,97.14521452,96.94629763,96,94629763
17/04/2009,99.23267327,98.42841305,98,42841305
20/04/2009,98.93564356,95.43889678,95,43889678
21/04/2009,96.62541254,96.10020812,96,10020812
22/04/2009,97.42574257,96.38418299,96,38418299
23/04/2009,97.88778878,96.34917239,96,34917239
24/04/2009,98.01155116,97.37906755,97,37906755
27/04/2009,99.31518152,97.64067454,97,64067454
28/04/2009,98.68811881,96.97061055,96,97061055
29/04/2009,97.9290429,97.85851827,97,85851827
30/04/2009,99.85973597,98.73864587,98,73864587
01/05/2009,99.85973597,99.01581312,99,1581312
04/05/2009,101.8234323,101.080466,101,80466
05/05/2009,103.7458746,101.3197051,101,3197051
06/05/2009,104.5049505,102.9515881,102,9515881
07/05/2009,105.1155116,102.0218622,102,218622
08/05/2009,105.1155116,103.8978468,103,8978468
11/05/2009,104.6122112,101.688289,101,688289
12/05/2009,104.0594059,101.368331,101,368331
13/05/2009,102.7145215,99.16558069,99,16558069
14/05/2009,101.0643564,99.45733569,99,45733569
15/05/2009,101.5429043,99.57403769,99,57403769
18/05/2009,103.2590759,102.0150546,102,150546
19/05/2009,104.5462046,102.6549705,102,6549705
20/05/2009,104.950495,102.3213973,102,3213973
21/05/2009,104.950495,100.5475269,100,5475269
22/05/2009,103.2590759,99.66059168,99,66059168
25/05/2009,102.4174917,99.72964036,99,72964036
26/05/2009,103.2013201,101.2399588,101,2399588
27/05/2009,103.9273927,101.2662167,101,2662167
28/05/2009,103.960396,101.0882462,101,882462
29/05/2009,103.8366337,101.1641025,101,1641025
01/06/2009,103.8366337,103.8424134,103,8424134
02/06/2009,105.7013201,103.4845273,103,4845273
03/06/2009,105.9570957,102.1774648,102,1774648
04/06/2009,105.6270627,102.3476553,102,3476553
05/06/2009,106.5511551,103.1908272,103,1908272
08/06/2009,106.5429043,103.2589034,103,2589034
09/06/2009,105.9818482,103.175267,103,175267
10/06/2009,106.7161716,103.8783965,103,8783965
11/06/2009,106.9636964,104.5017797,104,5017797
12/06/2009,107.3762376,104.637932,104,637932
15/06/2009,106.7326733,102.8037656,102,8037656
16/06/2009,104.4224422,101.8205512,101,8205512
17/06/2009,103.6468647,100.8266392,100,8266392
18/06/2009,102.9950495,100.9238908,100,9238908
19/06/2009,103.8366337,101.953786,101,953786
22/06/2009,103.2343234,99.44761053,99,44761053
23/06/2009,101.6419142,98.58790578,98,58790578
24/06/2009,101.5759076,100.0787739,100,787739
25/06/2009,102.9455446,100.9968296,100,9968296
26/06/2009,102.9207921,100.5767024,100,5767024
29/06/2009,103.5891089,101.6532784,101,6532784
30/06/2009,103.4158416,101.0123899,101,123899
01/07/2009,103.3745875,101.6386906,101,6386906
02/07/2009,103.1105611,99.58570789,99,58570789
03/07/2009,101.7821782,99.58570789,99,58570789
06/07/2009,101.5759076,99.22587672,99,22587672
07/07/2009,100.4455446,97.78266197,97,78266197
08/07/2009,99.29867987,97.33919437,97,33919437
09/07/2009,99.17491749,97.5453679,97,5453679
10/07/2009,99.09240924,97.04257678,97,4257678
13/07/2009,99.95049505,98.50524186,98,50524186
14/07/2009,99.95049505,99.71019003,99,71019003
15/07/2009,102.0544554,101.7728979,101,7728979
16/07/2009,103.960396,102.3515453,102,3515453
17/07/2009,104.4966997,102.6248225,102,6248225
20/07/2009,105.0082508,103.4222862,103,4222862
21/07/2009,105.7673267,104.2722658,104,2722658
22/07/2009,106.0973597,104.4949721,104,4949721
23/07/2009,107.0709571,106.3019081,106,3019081
24/07/2009,108.5231023,106.7463482,106,7463482
27/07/2009,108.7293729,107.1343824,107,1343824
28/07/2009,108.4570957,106.7833038,106,7833038
29/07/2009,108.7293729,107.3211056,107,3211056
30/07/2009,109.5049505,109.1299866,109,1299866
31/07/2009,110.3712871,108.865462,108,865462
03/08/2009,110.7343234,109.5744267,109,5744267
04/08/2009,111.5016502,109.6736234,109,6736234
05/08/2009,111.4933993,109.2029253,109,2029253
06/08/2009,111.5676568,109.2641939,109,2641939
07/08/2009,112.3762376,110.8202206,110,8202206
10/08/2009,113.160066,110.6782331,110,6782331
11/08/2009,112.4752475,109.563729,109,563729
12/08/2009,112.2029703,110.1793321,110,1793321
13/08/2009,112.9372937,110.8882967,110,8882967
14/08/2009,113.2178218,110.4360765,110,4360765
17/08/2009,111.6914191,108.513411,108,513411
18/08/2009,110.7343234,109.5608115,109,5608115
19/08/2009,111.2623762,109.243771,109,243771
20/08/2009,112.3184818,110.5119328,110,5119328
21/08/2009,114.0924092,112.1584035,112,1584035
24/08/2009,115.5033003,112.8323576,112,8323576
25/08/2009,116.1716172,113.1396728,113,1396728
26/08/2009,116.6089109,113.2067765,113,2067765
27/08/2009,116.4273927,113.0064381,113,64381
28/08/2009,116.3613861,113.0949371,113,949371
31/08/2009,115.9818482,112.4005602,112,4005602
01/09/2009,114.3151815,110.670453,110,670453
02/09/2009,113.5478548,110.3378523,110,3378523
03/09/2009,113.1765677,110.6227997,110,6227997
04/09/2009,114.2244224,112.0086359,112,86359
07/09/2009,115.189769,112.592146,112,592146
08/09/2009,115.4372937,112.6650847,112,6650847
09/09/2009,116.0561056,113.1503705,113,1503705
10/09/2009,116.9554455,113.9206037,113,9206037
11/09/2009,117.5247525,114.1316399,114,1316399
14/09/2009,117.5577558,113.8632253,113,8632253
15/09/2009,117.7805281,114.2113862,114,2113862
16/09/2009,118.7788779,115.5087235,115,5087235
17/09/2009,119.4719472,115.6341781,115,6341781
18/09/2009,119.4884488,115.4134168,115,4134168
21/09/2009,119.0429043,114.9106257,114,9106257
22/09/2009,119.0346535,115.2208585,115,2208585
23/09/2009,118.9851485,114.9475814,114,9475814
24/09/2009,117.9867987,113.6551067,113,6551067
25/09/2009,117.3762376,113.060899,113,60899
28/09/2009,118.0115512,114.8571373,114,8571373
29/09/2009,119.2079208,115.246144,115,246144
30/09/2009,119.0181518,114.7764184,114,7764184
01/10/2009,117.8630363,112.742886,112,742886
02/10/2009,115.7755776,110.9505378,110,9505378
05/10/2009,115.6105611,111.8559508,111,8559508
06/10/2009,116.8316832,113.4742186,113,4742186
07/10/2009,118.2508251,113.8291872,113,8291872
08/10/2009,118.7541254,114.8357419,114,8357419
09/10/2009,119.5132013,114.9446638,114,9446638
12/10/2009,120.0165017,115.2996324,115,2996324
13/10/2009,119.620462,114.636376,114,636376
14/10/2009,120.2970297,116.3402252,116,3402252
15/10/2009,120.9818482,116.4578998,116,4578998
16/10/2009,120.6848185,115.8413242,115,8413242
19/10/2009,120.7508251,116.998619,116,998619
20/10/2009,121.0066007,116.5259759,116,5259759
21/10/2009,120.2145215,116.1593371,116,1593371
22/10/2009,119.6452145,115.7440725,115,7440725
23/10/2009,119.0676568,114.7851711,114,7851711
26/10/2009,117.9785479,113.8486375,113,8486375
27/10/2009,117.2194719,113.9789547,113,9789547
28/10/2009,115.4290429,112.042674,112,42674
29/10/2009,115.7508251,113.6531617,113,6531617
30/10/2009,114.9587459,111.7995449,111,7995449
02/11/2009,113.9933993,111.7762045,111,7762045
03/11/2009,114.1584158,111.8365005,111,8365005
04/11/2009,114.7689769,112.2896933,112,2896933
05/11/2009,115.7260726,113.1299477,113,1299477
06/11/2009,116.4108911,113.5646626,113,5646626
09/11/2009,117.8052805,115.2685119,115,2685119
10/11/2009,118.3415842,115.3686811,115,3686811
11/11/2009,118.3415842,115.8257639,115,8257639
12/11/2009,118.8283828,115.682804,115,682804
13/11/2009,118.8531353,116.2186607,116,2186607
16/11/2009,119.7689769,117.3954058,117,3954058
17/11/2009,120.4042904,117.6540953,117,6540953
18/11/2009,120.1155116,116.970416,116,970416
19/11/2009,119.0429043,115.6555735,115,6555735
20/11/2009,117.9125413,115.0195476,115,195476
23/11/2009,118.5808581,116.3538405,116,3538405
24/11/2009,118.9026403,115.9132904,115,9132904
25/11/2009,118.9108911,116.2147706,116,2147706
26/11/2009,117.9042904,114.4204773,114,4204773
27/11/2009,116.9884488,114.0616187,114,616187
30/11/2009,116.460396,113.759166,113,759166
01/12/2009,117.5330033,115.7917258,115,7917258
02/12/2009,118.5808581,116.1748974,116,1748974
03/12/2009,118.4158416,115.8072861,115,8072861
04/12/2009,119.4141914,117.1610293,117,1610293
07/12/2009,119.6287129,117.0929531,117,929531
08/12/2009,118.7623762,116.1077937,116,1077937
09/12/2009,117.9950495,115.5476241,115,5476241
10/12/2009,118.490099,116.3917686,116,3917686
11/12/2009,119.0924092,117.2271604,117,2271604
14/12/2009,119.8679868,117.9837784,117,9837784
15/12/2009,120.2557756,118.0567172,118,567172
16/12/2009,120.8910891,118.9086418,118,9086418
17/12/2009,120.8745875,118.3552798,118,3552798
18/12/2009,120.4455446,118.5614533,118,5614533
21/12/2009,121.1468647,119.6652598,119,6652598
22/12/2009,122.2772277,120.6533367,120,6533367
23/12/2009,122.6567657,120.6581993,120,6581993
24/12/2009,122.7805281,120.9528718,120,9528718
25/12/2009,122.7805281,120.9071636,120,9071636
28/12/2009,123.1105611,121.224204,121,224204
29/12/2009,123.2425743,121.3593838,121,3593838
30/12/2009,123.3250825,121.3759166,121,3759166
31/12/2009,122.970297,120.9723222,120,9723222
04/01/2010,123.9273927,122.8541419,122,8541419
05/01/2010,124.9257426,123.147842,123,147842
06/01/2010,125.330033,123.2869119,123,2869119
07/01/2010,125.6930693,123.3588781,123,3588781
08/01/2010,126.2293729,123.90446,123,90446
11/01/2010,125.6683168,124.1086885,124,1086885
12/01/2010,125.0907591,123.2188357,123,2188357
13/01/2010,124.859736,123.5193434,123,5193434
14/01/2010,125.6353135,124.3031918,124,3031918
15/01/2010,125.4042904,123.266489,123,266489
18/01/2010,124.9339934,123.6584132,123,6584132
19/01/2010,125.9075908,124.8069554,124,8069554
20/01/2010,125.709571,123.9171027,123,9171027
21/01/2010,124.2491749,122.4913932,122,4913932
22/01/2010,122.5165017,120.3518565,120,3518565
25/01/2010,121.2293729,119.8928287,119,8928287
26/01/2010,121.3283828,120.2390446,120,2390446
27/01/2010,121.0313531,119.8150273,119,8150273
28/01/2010,120.3052805,119.038959,119,38959
29/01/2010,120.2722772,119.0467392,119,467392
01/02/2010,120.849835,120.0221734,120,221734
02/02/2010,121.8894389,121.1755782,121,1755782
03/02/2010,122.3349835,120.7661486,120,7661486
04/02/2010,120.4950495,118.2074573,118,2074573
05/02/2010,118.6056106,117.374983,117,374983
08/02/2010,117.6155116,117.1639469,117,1639469
09/02/2010,117.8712871,117.6550678,117,6550678
10/02/2010,118.7293729,118.1267384,118,1267384
11/02/2010,119.4554455,119.3744773,119,3744773
12/02/2010,119.5792079,119.181919,119,181919
15/02/2010,119.6534653,119.4065703,119,4065703
16/02/2010,120.0742574,120.4189602,120,4189602
17/02/2010,121.8811881,121.8495322,121,8495322
18/02/2010,122.6650165,122.6421333,122,6421333
19/02/2010,123.4653465,123.1925778,123,1925778
22/02/2010,123.4405941,123.0068271,123,68271
23/02/2010,122.7475248,121.8592574,121,8592574
24/02/2010,122.3432343,122.071266,122,71266
25/02/2010,122.0544554,121.3875868,121,3875868
26/02/2010,121.9884488,121.632661,121,632661
01/03/2010,123.6881188,123.7060666,123,7060666
02/03/2010,124.5379538,124.1106335,124,1106335
03/03/2010,124.810231,124.1261938,124,1261938
04/03/2010,125.1980198,124.5891117,124,5891117
05/03/2010,126.4521452,126.2880983,126,2880983
08/03/2010,127.2689769,126.3007411,126,3007411
09/03/2010,127.5907591,126.7160057,126,7160057
10/03/2010,127.7062706,126.8365977,126,8365977
11/03/2010,128.0280528,126.8793885,126,8793885
12/03/2010,127.830033,126.7782467,126,7782467
15/03/2010,127.879538,126.8492405,126,8492405
16/03/2010,127.9290429,127.3481415,127,3481415
17/03/2010,128.8778878,128.4743158,128,4743158
18/03/2010,129.7689769,128.9469589,128,9469589
19/03/2010,129.7854785,128.8652675,128,8652675
22/03/2010,129.4389439,129.0451831,129,451831
23/03/2010,130.049505,129.8436193,129,8436193
24/03/2010,131.0231023,130.3532181,130,3532181
25/03/2010,131.2376238,130.8316963,130,8316963
26/03/2010,131.2788779,130.4067065,130,4067065
29/03/2010,131.3036304,130.5039581,130,5039581
30/03/2010,131.6749175,130.8949098,130,8949098
31/03/2010,131.0066007,130.031315,130,31315
01/04/2010,132.0049505,131.4220139,131,4220139
06/04/2010,133.9191419,133.2357575,133,2357575
07/04/2010,134.2409241,133.0354191,133,354191
08/04/2010,133.4488449,132.4791395,132,4791395
09/04/2010,133.7293729,133.2484002,133,2484002
12/04/2010,133.6633663,132.50637,132,50637
13/04/2010,133.5808581,132.4917822,132,4917822
14/04/2010,134.1171617,133.3174489,133,3174489
15/04/2010,135.2062706,134.166456,134,166456
16/04/2010,134.0594059,132.4908097,132,4908097
19/04/2010,133.1105611,132.1922471,132,1922471
20/04/2010,133.8943894,133.5352926,133,5352926
21/04/2010,134.4966997,133.6189291,133,6189291
22/04/2010,134.2739274,133.3787174,133,3787174
23/04/2010,134.4636964,133.7424387,133,7424387
26/04/2010,135.4950495,134.6147861,134,6147861
27/04/2010,133.3745875,131.4696672,131,4696672
28/04/2010,132.0049505,131.2129228,131,2129228
29/04/2010,132.6732673,132.5015074,132,5015074
30/04/2010,132.549505,131.0933033,131,933033
03/05/2010,132.7392739,132.3818878,132,3818878
04/05/2010,131.4273927,129.9097505,129,9097505
05/05/2010,130.0412541,129.7346975,129,7346975
06/05/2010,128.9686469,127.6826873,127,6826873
07/05/2010,125.4125413,124.6921985,124,6921985
10/05/2010,128.0363036,130.0128372,130,128372
11/05/2010,131.0561056,130.2686091,130,2686091
12/05/2010,131.4438944,131.9773209,131,9773209
14/05/2010,131.7986799,129.9233657,129,9233657
17/05/2010,130.4125413,129.9233657,129,9233657
18/05/2010,130.3465347,129.127847,129,127847
19/05/2010,128.6963696,127.5902982,127,5902982
20/05/2010,126.0478548,124.0999358,124,999358
21/05/2010,123.1930693,124.3489001,124,3489001
25/05/2010,123.0280528,122.1714352,122,1714352
26/05/2010,123.2590759,123.3442904,123,3442904
27/05/2010,126.1138614,127.5689028,127,5689028
28/05/2010,127.1864686,126.6868302,126,6868302
31/05/2010,127.1534653,126.8754984,126,8754984
01/06/2010,126.4026403,125.978838,125,978838
02/06/2010,126.7656766,126.9250968,126,9250968
03/06/2010,128.5478548,128.8993056,128,8993056
04/06/2010,127.9207921,125.9623053,125,9623053
07/06/2010,126.2046205,125.2134674,125,2134674
08/06/2010,124.9422442,125.6997258,125,6997258
09/06/2010,125.0990099,125.8553284,125,8553284
10/06/2010,126.7244224,128.4743158,128,4743158
11/06/2010,128.7128713,128.8983331,128,8983331
14/06/2010,128.8943894,128.7689884,128,7689884
15/06/2010,130.0165017,130.4310194,130,4310194
16/06/2010,130.9818482,130.467975,130,467975
17/06/2010,130.7838284,130.580787,130,580787
18/06/2010,130.8580858,130.5963472,130,5963472
21/06/2010,131.4768977,131.2722463,131,2722463
22/06/2010,131.3943894,130.5360512,130,5360512
23/06/2010,130.5858086,129.4867057,129,4867057
24/06/2010,128.2508251,127.3393889,127,3393889
25/06/2010,127.169967,126.9503822,126,9503822
28/06/2010,127.4669967,127.6574018,127,6574018
29/06/2010,125.6023102,123.7683076,123,7683076
30/06/2010,123.4158416,123.4036139,123,4036139
01/07/2010,120.9570957,120.6397215,120,6397215
02/07/2010,119.4636964,119.6273316,119,6273316
05/07/2010,119.4471947,119.7926594,119,7926594
06/07/2010,120.3712871,121.2845,121,2845
07/07/2010,122.4009901,123.5368487,123,5368487
08/07/2010,124.3069307,124.6445452,124,6445452
09/07/2010,125.3712871,125.5091125,125,5091125
12/07/2010,125.9323432,126.2491977,126,2491977
13/07/2010,126.4108911,127.7488184,127,7488184
15/07/2010,126.5676568,126.0663645,126,663645
16/07/2010,124.8762376,123.3666582,123,3666582
19/07/2010,123.0940594,122.7539727,122,7539727
20/07/2010,123.4240924,123.145897,123,145897
21/07/2010,123.9851485,124.0503375,124,503375
22/07/2010,125.1815182,125.9000642,125,9000642
23/07/2010,127.1369637,126.9017564,126,9017564
26/07/2010,127.7310231,127.6758796,127,6758796
27/07/2010,128.3828383,127.55237,127,55237
28/07/2010,127.9620462,127.0787544,127,787544
29/07/2010,127.3514851,126.3581195,126,3581195
30/07/2010,127.0709571,126.0819248,126,819248
02/08/2010,128.1848185,128.3712291,128,3712291
03/08/2010,129.0511551,128.3644214,128,3644214
04/08/2010,129.2161716,128.7145275,128,7145275
05/08/2010,129.3481848,128.570595,128,570595
06/08/2010,128.1930693,127.8606578,127,8606578
09/08/2010,128.7788779,128.222434,128,222434
10/08/2010,129.1006601,127.2217144,127,2217144
11/08/2010,127.4917492,126.2209947,126,2209947
12/08/2010,126.1551155,126.1062377,126,1062377
13/08/2010,126.320132,126.1529185,126,1529185
16/08/2010,125.849835,126.6284792,126,6284792
17/08/2010,126.7491749,127.4473382,127,4473382
18/08/2010,127.4174917,127.5105518,127,5105518
19/08/2010,126.5511551,125.8592185,125,8592185
20/08/2010,125.7920792,124.9207399,124,9207399
23/08/2010,125.9488449,126.2258573,126,2258573
24/08/2010,124.5627063,124.2672087,124,2672087
25/08/2010,123.4240924,123.9842063,123,9842063
26/08/2010,123.1105611,123.7537199,123,7537199
27/08/2010,124.1171617,125.1113532,125,1113532
30/08/2010,124.2986799,124.8565538,124,8565538
31/08/2010,123.6468647,124.4626845,124,4626845
01/09/2010,125.8415842,127.1585008,127,1585008
02/09/2010,127.2607261,127.7342306,127,7342306
03/09/2010,128.4240924,128.8088616,128,8088616
06/09/2010,129.1089109,129.15216,129,15216
07/09/2010,129.0759076,129.0801937,129,801937
08/09/2010,129.0594059,129.6928792,129,6928792
09/09/2010,130.1815182,130.7908506,130,7908506
10/09/2010,130.8085809,131.0242546,131,242546
13/09/2010,131.4191419,131.4638321,131,4638321
14/09/2010,131.3861386,130.961041,130,961041
15/09/2010,131.179868,130.5477214,130,5477214
16/09/2010,130.5445545,129.5820123,129,5820123
17/09/2010,130.3877888,129.8202789,129,8202789
20/09/2010,131.3283828,131.2557135,131,2557135
21/09/2010,131.6254125,130.5613366,130,5613366
22/09/2010,129.5132013,128.1553304,128,1553304
23/09/2010,128.9933993,128.1125396,128,1125396
24/09/2010,129.6287129,129.0636609,129,636609
27/09/2010,130.2310231,128.7621808,128,7621808
28/09/2010,129.8514851,128.4402778,128,4402778
29/09/2010,129.5132013,128.1825608,128,1825608
30/09/2010,128.8778878,126.9698325,126,9698325
01/10/2010,128.4570957,126.6459845,126,6459845
04/10/2010,128.0693069,126.2054344,126,2054344
05/10/2010,128.5973597,127.4376131,127,4376131
06/10/2010,129.5049505,127.7624336,127,7624336
07/10/2010,129.290429,127.4735962,127,4735962
08/10/2010,129.3646865,127.7848015,127,7848015
11/10/2010,129.9257426,128.2146539,128,2146539
12/10/2010,130.2722772,128.3226032,128,3226032
13/10/2010,130.9818482,129.0558808,129,558808
14/10/2010,130.9570957,128.4597281,128,4597281
15/10/2010,130.990099,128.7709334,128,7709334
18/10/2010,131.4108911,129.5217163,129,5217163
19/10/2010,131.2541254,129.069496,129,69496
20/10/2010,130.5610561,128.9751619,128,9751619
21/10/2010,131.1881188,129.1638302,129,1638302
22/10/2010,131.7161716,129.4293272,129,4293272
25/10/2010,131.8151815,129.6705113,129,6705113
26/10/2010,132.2277228,129.9009978,129,9009978
27/10/2010,131.9554455,129.4857332,129,4857332
28/10/2010,131.2128713,129.3729212,129,3729212
29/10/2010,131.2541254,129.4623928,129,4623928
02/11/2010,131.3943894,129.7171921,129,7171921
03/11/2010,131.6666667,129.6627312,129,6627312
04/11/2010,132.5742574,131.0573201,131,573201
05/11/2010,134.3069307,132.6269621,132,6269621
08/11/2010,135.2310231,133.2727131,133,2727131
09/11/2010,135.2640264,133.1822691,133,1822691
10/11/2010,135.8333333,133.8037072,133,8037072
12/11/2010,134.7854785,132.5151226,132,5151226
15/11/2010,134.9339934,133.4827767,133,4827767
16/11/2010,133.7623762,131.1312314,131,1312314
17/11/2010,132.9207921,131.5542762,131,5542762
18/11/2010,134.4389439,133.1686538,133,1686538
19/11/2010,134.7442244,132.8691187,132,8691187
22/11/2010,134.5709571,132.4431564,132,4431564
23/11/2010,133.6963696,131.5212106,131,5212106
24/11/2010,134.0841584,133.0714022,133,714022
25/11/2010,135.0825083,133.5498804,133,5498804
26/11/2010,135.3052805,133.4847218,133,4847218
29/11/2010,134.8844884,133.091825,133,91825
30/11/2010,134.0429043,132.9838757,132,9838757
01/12/2010,135.4867987,133.9845953,133,9845953
02/12/2010,137.7805281,136.6804116,136,6804116
03/12/2010,137.7970297,135.7536032,135,7536032
06/12/2010,138.2838284,136.3429483,136,3429483
07/12/2010,138.490099,136.5919126,136,5919126
08/12/2010,139.4306931,137.5031607,137,5031607
09/12/2010,140.0165017,138.2967343,138,2967343
10/12/2010,140.1980198,138.4270515,138,4270515
13/12/2010,139.9422442,137.959271,137,959271
14/12/2010,140.2557756,138.2704763,138,2704763
15/12/2010,139.9834983,137.8824422,137,8824422
16/12/2010,140.4537954,139.0893354,139,893354
17/12/2010,140.7508251,139.0971155,139,971155
20/12/2010,141.179868,139.9013868,139,9013868
21/12/2010,142.1947195,140.9410071,140,9410071
22/12/2010,143.0693069,141.4788089,141,4788089
23/12/2010,143.2838284,141.7345807,141,7345807
24/12/2010,142.9620462,141.3630794,141,3630794